FW6744 Weather Reports


time (UTC)temp
C
wind
direction
speed
KPH
gust
KPH
rain 1hr
cm
rain 24hr
cm
rain mn
cm
humidity
%
barometer
mb
20260905182749 23 214 0.0 0.0 0.05 1.83 1.30 94 1007.6
20260905182243 23 214 0.0 0.0 0.03 1.80 1.27 94 1007.4
20260905181737 24 214 0.0 0.0 0.00 1.78 1.24 94 1007.3
20260905181231 24 214 0.0 0.0 0.00 1.78 1.24 94 1007.4
20260905180728 24 214 0.0 0.0 0.00 1.78 1.24 95 1007.5
20260905180219 24 214 0.0 0.0 0.00 1.78 1.24 95 1007.6
20260905175937 24 214 0.0 0.0 0.03 1.78 1.24 97 1007.7
20260905175214 24 214 0.0 0.0 0.03 1.78 1.24 97 1007.8
20260905174715 24 214 0.0 0.0 0.08 1.78 1.24 97 1007.8
20260905174215 23 214 0.0 1.6 0.18 1.78 1.24 97 1008.0
20260905173713 23 215 0.0 1.6 0.38 1.78 1.24 97 1008.2
20260905173214 22 215 0.0 0.0 0.71 1.78 1.24 96 1008.0
20260905172718 22 153 0.0 0.0 1.04 1.78 1.24 95 1007.8
20260905172215 22 153 0.0 0.0 1.12 1.78 1.24 95 1008.0
20260905171714 22 153 0.0 0.0 1.24 1.78 1.24 95 1007.9
20260905171214 22 153 0.0 0.0 1.24 1.78 1.24 94 1008.3
20260905170714 22 153 0.0 0.0 1.24 1.78 1.24 94 1008.5
20260905170215 22 153 0.0 1.6 1.24 1.78 1.24 93 1009.1
20260905165714 22 200 1.6 6.4 1.22 1.75 1.24 92 1009.2
20260905165215 22 202 1.6 9.7 1.22 1.75 1.22 91 1009.3
20260905164932 23 195 1.6 8.0 1.17 1.70 1.17 91 1009.6
20260905164213 23 256 1.6 6.4 1.07 1.60 1.09 91 1009.5
20260905163714 25 18 1.6 9.7 0.86 1.40 0.89 90 1009.3
20260905163213 25 150 0.0 9.7 0.53 1.07 0.61 89 1009.2
20260905162714 26 158 0.0 0.0 0.20 0.74 0.20 88 1009.2
20260905162215 26 200 0.0 0.0 0.13 0.66 0.15 87 1009.0
20260905161714 26 30 0.0 0.0 0.00 0.53 0.00 84 1008.8
20260905161214 26 30 0.0 0.0 0.00 0.53 0.00 84 1008.6
20260905160715 27 30 0.0 0.0 0.00 0.53 0.00 83 1008.7
20260905160214 27 30 0.0 0.0 0.00 0.53 0.00 82 1008.4
20260905155714 27 29 0.0 0.0 0.00 0.53 0.00 82 1008.1
20260905155215 27 29 0.0 1.6 0.00 0.53 0.00 81 1008.1
20260905154715 27 351 0.0 1.6 0.00 0.53 0.00 83 1008.0
20260905154211 27 32 0.0 1.6 0.00 0.53 0.00 85 1008.1
20260905153711 27 31 0.0 1.6 0.00 0.53 0.00 84 1007.9
20260905153210 27 30 0.0 3.2 0.00 0.53 0.00 84 1007.9
20260905153137 26 31 0.0 3.2 0.00 0.53 0.00 84 1008.2
20260905152758 26 30 0.0 3.2 0.00 0.53 0.00 83 1008.1
20260905151709 26 30 0.0 3.2 0.00 0.53 0.00 83 1008.2
20260905151429 26 23 0.0 3.2 0.00 0.53 0.00 83 1008.2
20260905150709 27 27 1.6 4.8 0.00 0.53 0.00 83 1008.3
20260905150211 27 30 1.6 4.8 0.00 0.53 0.00 83 1008.3
20260905145705 26 31 0.0 3.2 0.00 0.53 0.00 83 1008.2
20260905145205 26 36 0.0 3.2 0.00 0.53 0.00 84 1008.3
20260905144707 26 33 0.0 3.2 0.00 0.53 0.00 84 1008.2
20260905144206 26 48 0.0 1.6 0.00 0.53 0.00 85 1008.2
20260905143707 26 37 1.6 9.7 0.00 0.53 0.00 86 1008.2
20260905143206 26 32 1.6 9.7 0.00 0.53 0.00 87 1008.2
20260905142705 25 29 1.6 4.8 0.00 0.53 0.00 90 1008.2
20260905142206 25 34 1.6 8.0 0.00 0.53 0.00 90 1008.2
20260905141707 25 32 0.0 8.0 0.00 0.53 0.00 93 1008.1
20260905141200 24 35 0.0 3.2 0.00 0.53 0.00 95 1008.1
20260905140654 24 37 0.0 1.6 0.00 0.53 0.00 97 1008.0
20260905140410 23 37 0.0 0.0 0.00 0.53 0.00 97 1007.8
20260905135642 23 37 0.0 3.2 0.00 0.53 0.00 98 1007.9
20260905135136 23 37 0.0 3.2 0.00 0.53 0.00 98 1007.8
20260905134630 23 80 0.0 1.6 0.00 0.53 0.00 98 1007.8
20260905134129 23 80 0.0 1.6 0.00 0.53 0.00 98 1007.8
20260905133838 23 134 0.0 0.0 0.00 0.53 0.00 98 1007.8
20260905133111 23 162 0.0 0.0 0.00 0.53 0.00 98 1007.7
20260905132612 23 162 0.0 0.0 0.00 0.53 0.00 98 1007.7
20260905132330 22 162 0.0 0.0 0.00 0.53 0.00 98 1007.8
20260905131845 22 162 0.0 0.0 0.00 0.53 0.00 98 1007.8
20260905131332 22 162 0.0 0.0 0.00 0.53 0.00 98 1007.8
20260905130603 22 162 0.0 0.0 0.00 0.53 0.00 98 1007.6
20260905125600 22 162 0.0 0.0 0.00 0.53 0.00 98 1007.5
20260905125100 22 162 0.0 0.0 0.00 0.53 0.00 98 1007.5
20260905124601 22 162 0.0 0.0 0.00 0.53 0.00 98 1007.6
20260905124319 22 162 0.0 0.0 0.00 0.53 0.00 98 1007.7
20260905123820 22 162 0.0 0.0 0.00 0.53 0.00 98 1007.8
20260905123056 22 162 0.0 0.0 0.00 0.53 0.00 98 1007.7
20260905122556 22 162 0.0 0.0 0.00 0.53 0.00 98 1007.8
20260905122053 21 162 0.0 0.0 0.00 0.53 0.00 98 1007.8
20260905121551 21 162 0.0 0.0 0.00 0.53 0.00 98 1007.8
20260905121052 21 162 0.0 0.0 0.00 0.53 0.00 98 1007.8
20260905120553 21 162 0.0 0.0 0.00 0.53 0.00 98 1007.7
20260905120051 21 162 0.0 0.0 0.00 0.53 0.00 98 1007.7
20260905115552 21 162 0.0 0.0 0.00 0.53 0.00 98 1007.7
20260905115308 21 162 0.0 0.0 0.00 0.53 0.00 98 1007.7
20260905114541 21 162 0.0 0.0 0.00 0.53 0.00 98 1007.7
20260905114034 21 162 0.0 0.0 0.00 0.53 0.00 98 1007.6
20260905113528 21 162 0.0 0.0 0.00 0.53 0.00 98 1007.6
20260905113023 21 162 0.0 0.0 0.00 0.53 0.00 98 1007.6
20260905112516 21 162 0.0 0.0 0.00 0.53 0.00 98 1007.5
20260905112010 21 162 0.0 0.0 0.00 0.53 0.00 98 1007.5
20260905111504 21 162 0.0 0.0 0.00 0.53 0.00 98 1007.4
20260905110958 21 162 0.0 0.0 0.00 0.53 0.00 98 1007.5
20260905110453 21 162 0.0 0.0 0.00 0.53 0.00 98 1007.4
20260905105947 21 162 0.0 0.0 0.00 0.53 0.00 98 1007.3
20260905105440 20 162 0.0 0.0 0.00 0.53 0.00 98 1007.4
20260905104934 20 162 0.0 0.0 0.00 0.53 0.00 98 1007.3
20260905104429 21 162 0.0 0.0 0.00 0.53 0.00 98 1007.2
20260905103923 21 162 0.0 0.0 0.00 0.53 0.00 98 1007.1
20260905103417 21 162 0.0 0.0 0.00 0.53 0.00 98 1007.1
20260905102911 21 162 0.0 0.0 0.00 0.53 0.00 98 1007.2
20260905102406 21 162 0.0 0.0 0.00 0.53 0.00 98 1007.1
20260905101859 21 162 0.0 0.0 0.00 0.53 0.00 98 1007.1
20260905101353 21 162 0.0 0.0 0.00 0.53 0.00 98 1007.0
20260905100846 21 162 0.0 0.0 0.00 0.53 0.00 98 1006.9
20260905100341 21 162 0.0 0.0 0.00 0.53 0.00 98 1006.9
20260905095835 21 162 0.0 0.0 0.00 0.53 0.00 98 1006.9
20260905095328 21 162 0.0 0.0 0.00 0.53 0.00 97 1006.9
20260905094822 21 162 0.0 0.0 0.00 0.53 0.00 98 1006.9
20260905094316 21 162 0.0 0.0 0.00 0.53 0.00 98 1006.9
20260905093810 21 162 0.0 0.0 0.00 0.53 0.00 98 1006.9
20260905093305 21 162 0.0 0.0 0.00 0.53 0.00 98 1006.9
20260905092758 21 162 0.0 0.0 0.00 0.53 0.00 98 1006.8
20260905092518 21 162 0.0 0.0 0.00 0.53 0.00 98 1006.8
20260905092008 21 162 0.0 0.0 0.00 0.53 0.00 98 1006.8
20260905091240 21 162 0.0 0.0 0.00 0.53 0.00 98 1006.6
20260905090735 21 162 0.0 0.0 0.00 0.53 0.00 97 1006.5
20260905090453 21 162 0.0 0.0 0.00 0.53 0.00 98 1006.5
20260905085942 21 162 0.0 0.0 0.00 0.53 0.00 97 1006.6
20260905085217 21 162 0.0 0.0 0.00 0.53 0.00 97 1006.6
20260905084711 21 162 0.0 0.0 0.00 0.53 0.00 97 1006.6
20260905084205 21 162 0.0 0.0 0.00 0.53 0.00 97 1006.5
20260905083659 21 162 0.0 0.0 0.00 0.53 0.00 97 1006.5
20260905083153 21 162 0.0 0.0 0.00 0.53 0.00 97 1006.7
20260905082648 21 162 0.0 0.0 0.00 0.53 0.00 97 1006.7
20260905082618 21 162 0.0 0.0 0.00 0.53 0.00 97 1006.7
20260905081836 21 162 0.0 0.0 0.00 0.53 0.00 97 1006.8
20260905081723 21 162 0.0 0.0 0.00 0.53 0.00 97 1006.7
20260905080622 21 162 0.0 0.0 0.00 0.53 0.00 97 1006.8
20260905080117 21 162 0.0 0.0 0.00 0.53 0.00 97 1006.9
20260905075611 21 162 0.0 0.0 0.00 0.53 0.00 97 1006.9
20260905075105 21 162 0.0 0.0 0.00 0.53 0.00 97 1006.9
20260905074559 21 162 0.0 0.0 0.00 0.53 0.00 97 1007.1
20260905074053 21 162 0.0 0.0 0.00 0.53 0.00 97 1007.2
20260905073547 21 162 0.0 0.0 0.00 0.53 0.00 97 1007.2
20260905073041 21 162 0.0 0.0 0.00 0.53 0.00 97 1007.2
20260905072535 21 162 0.0 0.0 0.00 0.53 0.00 97 1007.3
20260905072028 21 162 0.0 1.6 0.00 0.53 0.00 97 1007.2
20260905071522 21 142 0.0 1.6 0.00 0.53 0.00 97 1007.2
20260905071016 21 142 0.0 0.0 0.00 0.53 0.00 97 1007.2
20260905071006 21 142 0.0 0.0 0.00 0.53 0.00 97 1007.3
20260905070005 21 142 0.0 1.6 0.00 0.53 0.00 97 1007.4
20260905065458 21 142 0.0 1.6 0.00 0.53 0.00 97 1007.4
20260905064953 21 202 0.0 1.6 0.00 0.53 0.00 97 1007.5
20260905064446 21 177 0.0 1.6 0.00 0.53 0.00 97 1007.5
20260905063940 21 171 0.0 0.0 0.00 0.53 0.00 97 1007.5
20260905063437 22 170 0.0 0.0 0.00 0.53 0.00 97 1007.6
20260905062938 22 170 0.0 0.0 0.00 0.53 0.00 97 1007.6
20260905062438 22 170 0.0 0.0 0.00 0.53 0.00 97 1007.7
20260905061936 22 170 0.0 1.6 0.00 0.53 0.00 97 1007.6
20260905061436 22 170 0.0 1.6 0.00 0.53 0.00 97 1007.8
20260905060932 22 211 0.0 1.6 0.00 0.53 0.00 97 1007.7
20260905060433 22 211 0.0 1.6 0.00 0.53 0.00 97 1007.8
20260905060152 22 225 0.0 1.6 0.00 0.53 0.00 97 1008.0
20260905055432 22 186 0.0 0.0 0.00 0.53 0.00 97 1008.1
20260905054934 22 188 0.0 0.0 0.00 0.53 0.00 97 1008.1
20260905054434 22 212 0.0 1.6 0.00 0.53 0.00 97 1008.2
20260905053930 22 212 0.0 1.6 0.00 0.53 0.00 97 1008.3
20260905053429 22 213 0.0 1.6 0.00 0.53 0.00 97 1008.4
20260905052929 22 164 0.0 1.6 0.00 0.53 0.00 97 1008.5
20260905052430 22 152 0.0 0.0 0.00 0.53 0.00 97 1008.6
20260905051930 22 150 0.0 0.0 0.00 0.53 0.00 97 1008.7
20260905051428 22 132 0.0 1.6 0.00 0.53 0.00 97 1008.8
20260905050929 22 172 0.0 1.6 0.00 0.53 0.00 97 1008.9
20260905050430 22 223 0.0 1.6 0.00 0.53 0.00 97 1009.0
20260905050206 22 223 0.0 1.6 0.00 0.53 0.00 97 1009.2
20260905045428 22 223 0.0 0.0 0.00 0.53 0.00 97 1009.2
20260905044930 22 223 0.0 0.0 0.00 0.53 0.00 97 1009.2
20260905044428 22 223 0.0 0.0 0.00 0.53 0.00 97 1009.4
20260905043929 22 223 0.0 0.0 0.00 0.53 0.00 97 1009.5
20260905043429 22 223 0.0 0.0 0.00 0.53 0.00 97 1009.5
20260905042929 22 223 0.0 1.6 0.00 0.53 0.00 97 1009.5
20260905042430 22 223 0.0 1.6 0.00 0.53 0.00 97 1009.5
20260905041930 22 26 0.0 1.6 0.00 0.53 0.00 97 1009.4
20260905041429 22 93 0.0 1.6 0.00 0.53 0.00 97 1009.4
20260905040922 22 149 0.0 1.6 0.00 0.53 0.00 97 1009.6
20260905040417 22 131 0.0 4.8 0.00 0.53 0.00 97 1009.5
20260905035912 22 227 0.0 4.8 0.00 0.53 0.53 97 1009.6
20260905035406 22 219 0.0 1.6 0.00 0.53 0.53 97 1009.6
20260905035127 22 63 0.0 1.6 0.00 0.53 0.53 97 1009.5
20260905034354 22 155 0.0 0.0 0.00 0.53 0.53 97 1009.6
20260905033848 22 155 0.0 0.0 0.00 0.53 0.53 97 1009.6
20260905033342 22 153 0.0 1.6 0.00 0.53 0.53 97 1009.6
20260905032837 22 153 0.0 1.6 0.00 0.53 0.53 97 1009.7
20260905032330 22 76 0.0 1.6 0.00 0.53 0.53 97 1009.7
20260905031824 22 103 0.0 0.0 0.00 0.53 0.53 97 1009.7
20260905031322 22 103 0.0 0.0 0.00 0.53 0.53 97 1009.6
20260905030812 22 120 0.0 0.0 0.00 0.53 0.53 97 1009.6
20260905030306 22 120 0.0 0.0 0.00 0.53 0.53 97 1009.6
20260905025800 22 120 0.0 0.0 0.00 0.53 0.53 97 1009.5
20260905025254 22 121 0.0 0.0 0.00 0.53 0.53 97 1009.6
20260905024747 22 120 0.0 0.0 0.00 0.53 0.53 97 1009.6
20260905024242 22 121 0.0 0.0 0.00 0.53 0.53 97 1009.6
20260905023736 22 121 0.0 0.0 0.00 0.53 0.53 97 1009.8
20260905023229 22 120 0.0 1.6 0.00 0.53 0.53 97 1009.6
20260905022724 22 121 0.0 1.6 0.00 0.53 0.53 97 1009.7
20260905022218 22 122 0.0 0.0 0.00 0.53 0.53 97 1009.8
20260905021712 22 139 0.0 1.6 0.00 0.53 0.53 97 1009.8
20260905021205 22 146 0.0 0.0 0.00 0.53 0.53 97 1009.6
20260905020700 23 149 0.0 0.0 0.00 0.53 0.53 97 1009.6
20260905020154 23 149 0.0 0.0 0.00 0.53 0.53 97 1009.6
20260905015647 23 149 0.0 0.0 0.00 0.53 0.53 97 1009.7
20260905015142 23 149 0.0 0.0 0.00 0.53 0.53 97 1009.5
20260905014856 23 149 0.0 0.0 0.00 0.53 0.53 97 1009.5
20260905014130 23 149 0.0 0.0 0.00 0.53 0.53 97 1009.5
20260905013624 22 149 0.0 0.0 0.00 0.53 0.53 97 1009.5
20260905013118 22 149 0.0 0.0 0.00 0.53 0.53 97 1009.4
20260905012612 23 149 0.0 0.0 0.00 0.53 0.53 97 1009.3
20260905012112 22 149 0.0 0.0 0.00 0.53 0.53 97 1009.1
20260905011613 23 149 0.0 0.0 0.00 0.53 0.53 97 1009.1
20260905011337 23 149 0.0 0.0 0.00 0.53 0.53 97 1008.9
20260905010841 23 149 0.0 0.0 0.00 0.53 0.53 97 1008.7
20260905010113 23 149 0.0 0.0 0.00 0.53 0.53 97 1008.6
20260905005839 23 149 0.0 0.0 0.00 0.53 0.53 97 1008.7
20260905005114 23 149 0.0 3.2 0.00 0.53 0.53 97 1008.6
20260905004612 23 34 0.0 3.2 0.00 0.53 0.53 97 1008.6
20260905004114 23 63 0.0 1.6 0.00 0.53 0.53 96 1008.4
20260905003612 23 66 0.0 0.0 0.00 0.53 0.53 96 1008.2
20260905003114 23 66 0.0 0.0 0.00 0.53 0.53 96 1008.7
20260905002613 23 66 0.0 0.0 0.03 0.53 0.53 96 1008.8
20260905002114 23 66 0.0 0.0 0.03 0.53 0.53 96 1008.6
20260905001613 23 66 0.0 0.0 0.03 0.53 0.53 96 1008.2
20260905001113 23 66 0.0 0.0 0.03 0.53 0.53 96 1008.2
20260905000615 23 66 0.0 0.0 0.03 0.53 0.53 96 1008.0
20260905000116 23 66 0.0 1.6 0.03 0.53 0.53 96 1008.1
20260904235616 23 66 0.0 1.6 0.03 0.53 0.53 96 1008.2
20260904235115 23 66 0.0 1.6 0.03 0.53 0.53 96 1008.2
20260904234612 23 73 0.0 1.6 0.03 0.53 0.53 95 1007.8
20260904234112 23 73 0.0 3.2 0.03 0.53 0.53 95 1008.2
20260904233610 23 37 0.0 3.2 0.03 0.53 0.53 95 1008.0
20260904233111 23 253 0.0 4.8 0.03 0.53 0.53 95 1008.4
20260904232608 23 219 0.0 4.8 0.00 0.51 0.53 95 1008.8
20260904232108 23 218 0.0 4.8 0.05 0.51 0.51 95 1009.2
20260904231609 23 220 0.0 1.6 0.05 0.51 0.51 96 1009.1
20260904231553 23 220 0.0 1.6 0.08 0.51 0.51 96 1009.2
20260904230609 23 220 0.0 1.6 0.10 0.51 0.51 95 1009.3
20260904230107 23 221 0.0 0.0 0.41 0.51 0.51 95 1009.3
20260904225605 23 221 0.0 0.0 0.51 0.51 0.51 95 1009.2
20260904225330 23 221 0.0 0.0 0.51 0.51 0.51 95 1009.2
20260904224603 23 221 0.0 3.2 0.51 0.51 0.51 95 1009.3
20260904224327 23 221 0.0 3.2 0.51 0.51 0.51 94 1009.8
20260904223601 23 205 0.0 1.6 0.51 0.51 0.51 95 1010.0
20260904223100 23 51 0.0 1.6 0.51 0.51 0.51 95 1009.8
20260904222559 23 31 0.0 1.6 0.51 0.51 0.51 94 1009.4
20260904222058 23 30 1.6 4.8 0.46 0.46 0.48 94 1009.5
20260904221554 23 30 1.6 4.8 0.46 0.46 0.46 93 1009.9
20260904221056 23 32 0.0 3.2 0.43 0.43 0.43 92 1010.0
20260904220556 23 85 0.0 1.6 0.33 0.33 0.41 92 1009.8
20260904220054 23 118 0.0 1.6 0.10 0.10 0.13 92 1010.1
20260904215555 23 226 0.0 1.6 0.00 0.00 0.00 91 1009.7
20260904215053 23 83 0.0 4.8 0.00 0.00 0.00 89 1009.2
20260904214551 23 73 1.6 6.4 0.00 0.00 0.00 87 1009.3
20260904214314 24 30 3.2 9.7 0.00 0.00 0.00 84 1009.3
20260904213551 26 32 3.2 16.1 0.00 0.00 0.00 79 1009.9
20260904213051 28 167 4.8 24.1 0.00 0.00 0.00 74 1009.9
20260904212550 30 20 6.4 24.1 0.00 0.00 0.00 71 1009.0
20260904212323 32 108 3.2 24.1 0.00 0.00 0.00 66 1008.9
20260904211554 33 9 0.0 14.5 0.00 0.00 0.00 62 1008.1
20260904211047 33 65 0.0 0.0 0.00 0.00 0.00 63 1007.7
20260904210542 34 65 0.0 0.0 0.00 0.00 0.00 61 1007.6
20260904210036 34 65 0.0 0.0 0.00 0.00 0.00 60 1007.5
20260904205530 35 65 0.0 0.0 0.00 0.00 0.00 60 1007.6
20260904205258 35 65 0.0 0.0 0.00 0.00 0.00 59 1007.5
20260904204518 36 65 0.0 0.0 0.00 0.00 0.00 58 1007.5
20260904204234 36 65 0.0 1.6 0.00 0.00 0.00 57 1007.5
20260904203506 36 65 0.0 1.6 0.00 0.00 0.00 56 1007.5
20260904203001 37 68 0.0 1.6 0.00 0.00 0.00 55 1007.4
20260904202454 36 158 0.0 0.0 0.00 0.00 0.00 56 1007.4
20260904202221 35 157 0.0 0.0 0.00 0.00 0.00 57 1007.3
20260904201441 35 158 0.0 0.0 0.00 0.00 0.00 58 1007.2
20260904200936 35 158 0.0 0.0 0.00 0.00 0.00 58 1007.3
20260904200430 35 158 0.0 0.0 0.00 0.00 0.00 59 1007.4
20260904195923 35 158 0.0 0.0 0.00 0.00 0.00 59 1007.7
20260904195416 35 160 0.0 0.0 0.00 0.00 0.00 57 1007.8
20260904194910 36 160 0.0 1.6 0.00 0.00 0.00 55 1008.0
20260904194403 36 160 0.0 1.6 0.00 0.00 0.00 52 1008.0
20260904194119 37 28 0.0 3.2 0.00 0.00 0.00 51 1008.1
20260904193352 37 27 1.6 3.2 0.00 0.00 0.00 50 1008.0
20260904192846 38 157 1.6 3.2 0.00 0.00 0.00 49 1008.1
20260904192340 38 34 1.6 3.2 0.00 0.00 0.00 50 1008.3
20260904191834 38 36 0.0 3.2 0.00 0.00 0.00 50 1008.2
20260904191550 39 22 0.0 3.2 0.00 0.00 0.00 50 1008.3
20260904190822 38 258 0.0 3.2 0.00 0.00 0.00 48 1008.4
20260904190316 38 203 0.0 6.4 0.00 0.00 0.00 51 1008.4
20260904190031 38 164 0.0 6.4 0.00 0.00 0.00 49 1008.5
20260904185306 38 152 0.0 3.2 0.00 0.00 0.00 50 1008.7
20260904184757 38 147 0.0 4.8 0.00 0.00 0.00 50 1008.8
20260904184252 37 156 1.6 6.4 0.00 0.00 0.00 51 1009.0
20260904183745 37 205 1.6 6.4 0.00 0.00 0.00 50 1009.0
20260904183239 37 172 1.6 9.7 0.00 0.00 0.00 51 1009.1